• Join FlightAware (Why Join?)
  • Login
  • US Flag 
12:37AM EDT


 

Airport Tracker/Info


-or-


 

Live Flight TrackerFlight Track Log ✈ AAY894 ✈ 26-Dec-2013 ✈ KPIE - KIAG

Flight Track Log - Related Links

Times and Time Zones

All times are in EST time to prevent confusion due to time zone crossing. See the AAY894 flight status page for this flight to view local times or setup timezone preferences in your user account.

Time Position Orientation Groundspeed Altitude Reporting Facility
EST Latitude Longitude Course Direction KTS MPH feet Rate Location/Type
08:24AM 27.9333 -82.7000 24° Northeast 151 174 1,200  Level Tampa TRACON
08:25AM 27.9667 -82.6833 24° Northeast 164 189 3,200 1,560 Climbing Tampa TRACON
08:26AM 28.0333 -82.6500 24° Northeast 245 282 4,400 2,100 Climbing Tampa TRACON
08:28AM 28.1872 -82.6500 360° North 276 318 9,900 2,400 Climbing Jacksonville Center
08:29AM 28.2708 -82.6475 North 281 323 12,000 1,140 Climbing Jacksonville Center
08:30AM 28.3731 -82.6425 North 318 366 12,200 1,140 Climbing Jacksonville Center
08:31AM 28.4772 -82.6375 North 355 409 14,300 2,520 Climbing Jacksonville Center
08:32AM 28.5817 -82.6350 North 369 425 17,300 2,100 Climbing Jacksonville Center
08:33AM 28.6944 -82.6300 North 369 425 18,600 1,320 Climbing Jacksonville Center
08:34AM 28.8092 -82.6247 North 380 437 20,000 840 Climbing Jacksonville Center
08:35AM 28.9239 -82.6175 North 399 459 20,300 540 Climbing Jacksonville Center
08:36AM 29.0367 -82.6147 North 399 459 21,100 1,200 Climbing Jacksonville Center
08:37AM 29.1494 -82.6333 352° North 399 459 22,800 1,440 Climbing Jacksonville Center
08:38AM 29.2642 -82.6522 352° North 410 472 24,000 1,140 Climbing Jacksonville Center
08:39AM 29.3811 -82.6733 351° North 423 487 25,100 1,080 Climbing Jacksonville Center
08:40AM 29.5106 -82.6969 351° North 434 499 26,200 1,140 Climbing Jacksonville Center
08:41AM 29.6422 -82.7206 351° North 461 531 27,400 1,260 Climbing Jacksonville Center
08:42AM 29.7675 -82.7394 353° North 466 536 28,800 1,260 Climbing Jacksonville Center
08:43AM 29.9011 -82.7417 359° North 466 536 30,000 1,080 Climbing Jacksonville Center
08:44AM 30.0347 -82.7222 North 476 548 31,000 480 Climbing Jacksonville Center
08:45AM 30.1558 -82.7028 North 483 556 31,000 -60 Level Jacksonville Center
08:46AM 30.2936 -82.6808 North 483 556 30,900  Descending Jacksonville Center
08:47AM 30.4292 -82.6589 North 483 556 31,000  Climbing Jacksonville Center
08:48AM 30.5775 -82.6392 North 483 556 31,000  Level Jacksonville Center
08:49AM 30.6964 -82.6244 North 483 556 31,000  Level Jacksonville Center
08:50AM 30.8342 -82.6047 North 483 556 31,000  Level Jacksonville Center
08:51AM 30.9678 -82.5825 North 483 556 31,000 -60 Level Jacksonville Center
08:52AM 31.1014 -82.5603 North 483 556 30,900 -60 Descending Jacksonville Center
08:53AM 31.2369 -82.5403 North 483 556 30,900  Level Jacksonville Center
08:54AM 31.3725 -82.5153 North 483 556 31,000  Climbing Jacksonville Center
08:55AM 31.5103 -82.4978 North 489 563 31,000  Level Jacksonville Center
08:56AM 31.6439 -82.4436 19° North 489 563 31,000  Level Jacksonville Center
08:57AM 31.7750 -82.3744 24° Northeast 502 578 31,000  Level Jacksonville Center
08:59AM 32.0642 -82.3036 12° North 481 554 31,000  Level Atlanta Center
09:00AM 32.2036 -82.2861 North 486 559 31,000  Level Atlanta Center
09:01AM 32.3517 -82.2686 North 486 559 31,000  Level Atlanta Center
09:02AM 32.4892 -82.2511 North 486 559 31,000  Level Atlanta Center
09:03AM 32.6286 -82.2261 North 497 572 31,000  Level Atlanta Center
09:04AM 32.7661 -82.1986 10° North 502 578 31,000  Level Atlanta Center
09:05AM 32.9056 -82.1683 10° North 502 578 31,000  Level Atlanta Center
09:06AM 33.0428 -82.1431 North 502 578 31,000  Level Atlanta Center
09:07AM 33.1697 -82.1156 10° North 507 583 31,000  Level Atlanta Center
09:08AM 33.3028 -82.0878 10° North 501 577 31,000  Level Atlanta Center
09:09AM 33.4444 -82.0597 North 501 577 31,000  Level Atlanta Center
09:10AM 33.5817 -82.0317 10° North 501 577 31,000  Level Atlanta Center
09:11AM 33.7211 -82.0008 10° North 501 577 31,000  Level Atlanta Center
09:12AM 33.8583 -81.9750 North 501 577 31,000  Level Atlanta Center
09:13AM 33.9975 -81.9442 10° North 501 577 31,000  Level Atlanta Center
09:14AM 34.1369 -81.9156 10° North 501 577 31,000  Level Atlanta Center
09:15AM 34.2764 -81.8894 North 501 577 31,000  Level Atlanta Center
09:16AM 34.4303 -81.8578 10° North 510 587 31,000  Level Atlanta Center
09:17AM 34.5694 -81.8289 10° North 510 587 31,000  Level Atlanta Center
09:18AM 34.6964 -81.8028 10° North 504 580 31,000  Level Atlanta Center
09:19AM 34.8378 -81.7789 North 504 580 31,000  Level Atlanta Center
09:20AM 34.9769 -81.7472 11° North 504 580 31,000  Level Atlanta Center
09:21AM 35.1142 -81.7131 12° North 504 580 31,000  Level Atlanta Center
09:22AM 35.2556 -81.6861 North 504 580 31,000  Level Atlanta Center
09:23AM 35.3967 -81.6542 10° North 504 580 31,000  Level Atlanta Center
09:24AM 35.5464 -81.6217 10° North 504 580 31,000  Level Atlanta Center
09:25AM 35.6833 -81.5919 10° North 504 580 31,000  Level Atlanta Center
09:26AM 35.8206 -81.5622 10° North 504 580 31,000  Level Atlanta Center
09:27AM 35.9597 -81.5322 10° North 504 580 31,000  Level Atlanta Center
09:28AM 36.0947 -81.5025 10° North 499 574 31,000  Level Atlanta Center
09:29AM 36.2336 -81.4697 11° North 499 574 31,000  Level Atlanta Center
09:30AM 36.3686 -81.4372 11° North 499 574 31,000  Level Atlanta Center
09:31AM 36.5014 -81.4122 North 493 567 31,000  Level Atlanta Center
09:32AM 36.6364 -81.3792 11° North 493 567 31,000  Level Atlanta Center
09:33AM 36.7711 -81.3489 10° North 493 567 31,000  Level Atlanta Center
09:35AM 36.9964 -81.3022 North 482 555 31,000  Level Indianapolis Center
09:36AM 37.1386 -81.2703 10° North 480 552 31,000  Level Indianapolis Center
09:37AM 37.2708 -81.2397 10° North 482 555 31,000  Level Indianapolis Center
09:38AM 37.4106 -81.2086 10° North 484 557 31,000  Level Indianapolis Center
09:39AM 37.5400 -81.1808 10° North 483 556 31,000  Level Indianapolis Center
09:40AM 37.6642 -81.1508 11° North 470 541 31,000  Level Indianapolis Center
09:41AM 37.8131 -81.1156 11° North 464 534 31,000  Level Indianapolis Center
09:42AM 37.9456 -81.0783 12° North 472 543 31,000  Level Indianapolis Center
09:43AM 38.0731 -81.0403 13° North 473 544 31,000  Level Indianapolis Center
09:44AM 38.2022 -81.0033 13° North 475 547 31,000  Level Indianapolis Center
09:45AM 38.3311 -80.9644 13° North 479 551 31,000  Level Indianapolis Center
09:46AM 38.4608 -80.9267 13° North 480 552 31,000  Level Indianapolis Center
09:47AM 38.5897 -80.8897 13° North 478 550 31,000  Level Indianapolis Center
09:48AM 38.7422 -80.8436 13° North 473 544 31,000  Level Indianapolis Center
09:49AM 38.8703 -80.8064 13° North 474 545 31,000 -360 Level Indianapolis Center
09:50AM 39.0006 -80.7667 13° North 477 549 30,300 -840 Descending Indianapolis Center
09:51AM 39.1244 -80.7311 13° North 470 541 29,300 -660 Descending Indianapolis Center
09:53AM 39.2433 -80.6942 14° North 447 514 29,000 -180 Descending Indianapolis Center
09:54AM 39.3914 -80.6492 13° North 453 521 29,000  Level Indianapolis Center
09:55AM 39.5153 -80.6125 13° North 456 525 29,000  Level Indianapolis Center
09:56AM 39.6389 -80.5750 13° North 456 525 29,000  Level Indianapolis Center
09:56AM 39.7264 -80.5508 12° North 455 524 29,000  Level Cleveland Center
09:57AM 39.8489 -80.5133 13° North 454 522 29,000  Level Cleveland Center
09:58AM 39.9692 -80.4767 13° North 447 514 29,000  Level Cleveland Center
09:59AM 40.0900 -80.4403 13° North 444 511 29,000  Level Cleveland Center
10:00AM 40.2111 -80.4028 13° North 445 512 29,000  Level Cleveland Center
10:01AM 40.3350 -80.3639 13° North 445 512 29,000  Level Cleveland Center
10:02AM 40.4567 -80.3275 13° North 447 514 29,000  Level Cleveland Center
10:03AM 40.5767 -80.2900 13° North 445 512 29,000  Level Cleveland Center
10:04AM 40.6969 -80.2514 14° North 445 512 29,000  Level Cleveland Center
10:06AM 40.8411 -80.2036 14° North 445 512 29,000  Level Cleveland Center
10:07AM 40.9367 -80.1319 30° Northeast 466 536 29,000 -360 Level Cleveland Center
10:08AM 41.0772 -80.0306 29° Northeast 478 550 28,300 -840 Descending Cleveland Center
10:09AM 41.1917 -79.9489 28° Northeast 483 556 27,400 -960 Descending Cleveland Center
10:10AM 41.3100 -79.8614 29° Northeast 487 560 26,400 -1,020 Descending Cleveland Center
10:11AM 41.4281 -79.7758 29° Northeast 483 556 25,400 -1,020 Descending Cleveland Center
10:12AM 41.5422 -79.6919 29° Northeast 473 544 24,400 -1,200 Descending Cleveland Center
10:13AM 41.6814 -79.5881 29° Northeast 474 545 23,000 -1,500 Descending Cleveland Center
10:14AM 41.7956 -79.5208 24° Northeast 449 517 21,400 -1,680 Descending Cleveland Center
10:15AM 41.9083 -79.4750 17° North 426 490 19,600 -1,800 Descending Cleveland Center
10:16AM 42.0206 -79.4278 17° North 421 484 17,800 -1,740 Descending Cleveland Center
10:17AM 42.1325 -79.4250 North 401 461 16,100 -1,740 Descending Cleveland Center
10:18AM 42.2367 -79.4219 North 376 433 14,300 -1,260 Descending Cleveland Center
10:19AM 42.3317 -79.4211 360° North 346 398 13,600 -840 Descending Cleveland Center
10:20AM 42.4281 -79.4183 North 346 398 12,600 -1,140 Descending Cleveland Center
10:21AM 42.5314 -79.4119 North 315 362 11,300 -900 Descending Cleveland Center
10:22AM 42.6128 -79.3997 North 296 341 10,800 -540 Descending Cleveland Center
10:23AM 42.6789 -79.3258 39° Northeast 311 358 10,300 -600 Descending Cleveland Center
10:24AM 42.7497 -79.2386 42° Northeast 307 353 9,600 -780 Descending Cleveland Center
10:25AM 42.8119 -79.1664 40° Northeast 306 352 8,700 -1,020 Descending Cleveland Center
10:26AM 42.8783 -79.0897 40° Northeast 301 346 7,600 -1,020 Descending Cleveland Center
10:27AM 42.9433 -79.0158 40° Northeast 294 338 6,700 -900 Descending Cleveland Center
10:28AM 43.0072 -78.9417 40° Northeast 290 334 5,800 -780 Descending Cleveland Center
10:29AM 43.0333 -78.8500 69° East 277 319 5,200 -720 Descending Buffalo TRACON
10:30AM 43.0667 -78.7500 65° Northeast 261 300 4,500 -780 Descending Buffalo TRACON
10:31AM 43.1000 -78.7000 48° Northeast 239 275 3,700 -840 Descending Buffalo TRACON
10:32AM 43.1167 -78.7667 289° West 175 201 2,900 -960 Descending Buffalo TRACON
10:33AM 43.1167 -78.8333 270° West 163 188 1,900 -840 Descending Buffalo TRACON
10:34AM 43.1167 -78.8667 270° West 105 121 1,400 -600 Descending Buffalo TRACON
10:35AM 43.1167 -78.9167 270° West 115 132 800 -600 Descending Buffalo TRACON